Precipitable_Water
0.53 0.52 0.51 0.51 0.50 0.49 0.48 0.48 0.49 0.49 0.50 0.51 0.53 0.52 0.54 0.63 0.64 0.56 0.38 0.42 0.45 0.51 0.61 0.49 0.49 0.57 0.53 0.44 0.46 0.43 0.22 0.13 0.13 0.12 0.13 0.18 0.18 0.22 0.29 0.26 0.33 0.43 0.52 0.78 1.01
0.52 0.52 0.51 0.50 0.49 0.48 0.48 0.47 0.45 0.45 0.48 0.50 0.51 0.52 0.52 0.51 0.41 0.34 0.46 0.54 0.52 0.61 0.53 0.40 0.35 0.51 0.45 0.40 0.42 0.33 0.21 0.17 0.19 0.19 0.16 0.22 0.20 0.20 0.22 0.26 0.33 0.37 0.57 0.89 0.99
0.51 0.51 0.50 0.47 0.45 0.44 0.44 0.45 0.44 0.42 0.45 0.46 0.50 0.53 0.52 0.50 0.24 0.19 0.57 0.62 0.62 0.62 0.63 0.51 0.44 0.49 0.40 0.42 0.38 0.33 0.19 0.21 0.23 0.23 0.23 0.26 0.23 0.25 0.23 0.24 0.31 0.32 0.54 0.79 0.87
0.49 0.47 0.44 0.41 0.40 0.39 0.38 0.39 0.40 0.40 0.42 0.45 0.46 0.51 0.53 0.45 0.09 0.39 0.48 0.48 0.62 0.59 0.59 0.50 0.47 0.47 0.37 0.33 0.39 0.27 0.27 0.26 0.23 0.28 0.26 0.26 0.27 0.24 0.26 0.26 0.35 0.43 0.57 0.71 0.77
0.45 0.42 0.40 0.38 0.36 0.35 0.34 0.35 0.37 0.40 0.40 0.39 0.44 0.47 0.46 0.30 0.21 0.39 0.42 0.46 0.48 0.52 0.43 0.36 0.39 0.47 0.36 0.39 0.37 0.32 0.30 0.31 0.31 0.29 0.31 0.33 0.28 0.26 0.27 0.33 0.42 0.55 0.62 0.66 0.72
0.42 0.39 0.36 0.34 0.33 0.32 0.28 0.30 0.31 0.34 0.36 0.37 0.43 0.46 0.37 0.20 0.39 0.46 0.44 0.45 0.45 0.55 0.47 0.42 0.33 0.46 0.43 0.40 0.39 0.41 0.32 0.32 0.32 0.31 0.35 0.31 0.30 0.31 0.31 0.37 0.46 0.53 0.58 0.65 0.69
0.39 0.36 0.34 0.33 0.33 0.30 0.27 0.28 0.30 0.31 0.31 0.35 0.40 0.40 0.32 0.26 0.39 0.49 0.49 0.45 0.49 0.49 0.49 0.54 0.44 0.36 0.39 0.36 0.47 0.42 0.33 0.32 0.30 0.33 0.31 0.33 0.27 0.28 0.35 0.38 0.43 0.53 0.58 0.65 0.71
0.33 0.32 0.31 0.32 0.30 0.28 0.26 0.26 0.25 0.28 0.39 0.44 0.43 0.37 0.26 0.42 0.51 0.40 0.42 0.41 0.46 0.52 0.52 0.61 0.62 0.47 0.40 0.42 0.35 0.35 0.37 0.27 0.29 0.32 0.35 0.33 0.19 0.30 0.36 0.36 0.34 0.44 0.53 0.57 0.61
0.31 0.30 0.31 0.32 0.29 0.27 0.23 0.19 0.36 0.43 0.57 0.60 0.53 0.44 0.27 0.49 0.33 0.37 0.43 0.36 0.38 0.45 0.49 0.49 0.50 0.45 0.42 0.31 0.26 0.29 0.19 0.25 0.31 0.34 0.32 0.32 0.25 0.30 0.36 0.36 0.35 0.37 0.46 0.52 0.58
0.30 0.28 0.31 0.28 0.25 0.24 0.19 0.16 0.32 0.30 0.43 0.58 0.43 0.39 0.36 0.26 0.29 0.38 0.41 0.40 0.37 0.40 0.37 0.36 0.39 0.34 0.33 0.28 0.12 0.17 0.20 0.22 0.25 0.34 0.38 0.30 0.29 0.31 0.34 0.34 0.36 0.38 0.43 0.52 0.52
0.27 0.26 0.28 0.26 0.25 0.24 0.20 0.13 0.13 0.16 0.17 0.19 0.22 0.18 0.18 0.20 0.31 0.34 0.37 0.34 0.41 0.35 0.27 0.29 0.27 0.24 0.20 0.25 0.25 0.27 0.21 0.21 0.22 0.32 0.33 0.31 0.31 0.29 0.33 0.35 0.33 0.38 0.42 0.44 0.48
0.25 0.25 0.24 0.23 0.24 0.24 0.24 0.18 0.19 0.20 0.13 0.15 0.17 0.16 0.16 0.16 0.21 0.28 0.31 0.24 0.26 0.26 0.34 0.30 0.20 0.23 0.32 0.33 0.33 0.28 0.25 0.22 0.26 0.28 0.30 0.33 0.34 0.37 0.34 0.34 0.35 0.37 0.40 0.42 0.44
0.25 0.22 0.21 0.19 0.20 0.20 0.21 0.24 0.31 0.26 0.19 0.15 0.13 0.13 0.14 0.15 0.23 0.23 0.23 0.22 0.21 0.22 0.25 0.25 0.25 0.24 0.32 0.34 0.28 0.31 0.25 0.27 0.23 0.27 0.29 0.29 0.32 0.36 0.37 0.36 0.36 0.39 0.43 0.43 0.42
0.24 0.21 0.20 0.16 0.13 0.17 0.17 0.27 0.34 0.34 0.13 0.12 0.11 0.13 0.13 0.14 0.20 0.24 0.24 0.22 0.19 0.17 0.23 0.25 0.29 0.28 0.28 0.32 0.38 0.26 0.32 0.33 0.29 0.25 0.16 0.27 0.17 0.32 0.35 0.35 0.34 0.36 0.40 0.42 0.42
0.21 0.20 0.17 0.17 0.12 0.12 0.17 0.29 0.34 0.32 0.05 0.11 0.09 0.16 0.11 0.13 0.16 0.16 0.21 0.19 0.16 0.16 0.19 0.15 0.25 0.29 0.26 0.28 0.39 0.34 0.39 0.34 0.34 0.28 0.24 0.23 0.21 0.26 0.33 0.32 0.34 0.35 0.36 0.39 0.41
0.21 0.18 0.15 0.12 0.12 0.13 0.22 0.27 0.20 0.06 0.03 0.08 0.10 0.11 0.09 0.11 0.15 0.15 0.14 0.18 0.22 0.15 0.19 0.17 0.24 0.29 0.33 0.36 0.40 0.45 0.40 0.36 0.35 0.33 0.22 0.22 0.21 0.23 0.26 0.28 0.31 0.35 0.36 0.36 0.38
0.21 0.17 0.14 0.14 0.09 0.14 0.24 0.18 0.04 0.04 0.10 0.07 0.08 0.11 0.09 0.10 0.12 0.13 0.13 0.11 0.11 0.10 0.11 0.16 0.20 0.29 0.33 0.28 0.32 0.38 0.34 0.23 0.21 0.21 0.19 0.27 0.23 0.22 0.29 0.30 0.31 0.32 0.35 0.37 0.37
0.20 0.16 0.14 0.14 0.14 0.14 0.10 0.05 0.03 0.08 0.08 0.10 0.10 0.09 0.08 0.12 0.10 0.12 0.11 0.09 0.13 0.13 0.13 0.12 0.12 0.20 0.27 0.25 0.24 0.29 0.32 0.23 0.15 0.19 0.18 0.27 0.23 0.23 0.29 0.31 0.32 0.32 0.34 0.36 0.38
0.17 0.13 0.13 0.14 0.13 0.12 0.07 0.04 0.06 0.09 0.11 0.09 0.08 0.08 0.08 0.10 0.11 0.10 0.09 0.10 0.12 0.13 0.11 0.12 0.13 0.22 0.24 0.25 0.26 0.24 0.25 0.33 0.28 0.28 0.20 0.24 0.24 0.27 0.29 0.30 0.31 0.31 0.32 0.33 0.36
0.11 0.10 0.11 0.17 0.14 0.10 0.06 0.06 0.08 0.12 0.12 0.11 0.07 0.10 0.09 0.10 0.10 0.09 0.08 0.11 0.09 0.13 0.19 0.16 0.11 0.19 0.20 0.21 0.22 0.23 0.28 0.24 0.28 0.19 0.17 0.18 0.20 0.21 0.25 0.26 0.29 0.30 0.31 0.32 0.34
0.12 0.07 0.13 0.17 0.13 0.08 0.05 0.08 0.10 0.12 0.12 0.10 0.10 0.10 0.10 0.11 0.11 0.10 0.09 0.10 0.10 0.12 0.17 0.16 0.15 0.14 0.17 0.14 0.15 0.18 0.19 0.22 0.24 0.25 0.19 0.15 0.17 0.25 0.26 0.28 0.28 0.29 0.30 0.32 0.33
0.11 0.06 0.14 0.15 0.06 0.08 0.07 0.09 0.11 0.11 0.12 0.12 0.13 0.12 0.11 0.12 0.10 0.10 0.09 0.10 0.11 0.14 0.12 0.15 0.15 0.11 0.13 0.17 0.19 0.18 0.17 0.19 0.18 0.19 0.21 0.18 0.16 0.26 0.27 0.28 0.28 0.28 0.30 0.31 0.33
0.10 0.10 0.15 0.13 0.05 0.06 0.09 0.09 0.11 0.10 0.11 0.11 0.11 0.14 0.14 0.11 0.09 0.10 0.09 0.11 0.12 0.14 0.13 0.14 0.12 0.09 0.10 0.14 0.14 0.14 0.16 0.19 0.20 0.21 0.17 0.17 0.15 0.24 0.27 0.28 0.28 0.29 0.30 0.31 0.32
0.10 0.06 0.10 0.11 0.12 0.08 0.07 0.08 0.08 0.12 0.12 0.14 0.13 0.14 0.13 0.11 0.12 0.10 0.09 0.12 0.12 0.14 0.16 0.15 0.11 0.09 0.07 0.09 0.12 0.11 0.14 0.17 0.18 0.16 0.16 0.16 0.17 0.20 0.21 0.23 0.27 0.29 0.31 0.32 0.33
0.11 0.08 0.10 0.07 0.08 0.09 0.09 0.09 0.08 0.08 0.12 0.14 0.11 0.12 0.12 0.10 0.10 0.10 0.11 0.11 0.11 0.13 0.14 0.13 0.10 0.11 0.12 0.12 0.12 0.12 0.12 0.14 0.13 0.15 0.14 0.15 0.17 0.20 0.22 0.23 0.25 0.29 0.31 0.32 0.33
0.10 0.09 0.11 0.10 0.11 0.09 0.09 0.08 0.09 0.10 0.11 0.10 0.11 0.12 0.13 0.11 0.12 0.10 0.12 0.11 0.10 0.11 0.11 0.15 0.10 0.11 0.10 0.11 0.11 0.10 0.12 0.13 0.13 0.13 0.13 0.15 0.15 0.21 0.24 0.24 0.23 0.25 0.26 0.28 0.31
0.18 0.18 0.11 0.09 0.09 0.08 0.08 0.08 0.09 0.12 0.12 0.14 0.13 0.12 0.11 0.13 0.16 0.17 0.17 0.16 0.15 0.10 0.11 0.12 0.11 0.10 0.08 0.10 0.10 0.09 0.11 0.11 0.12 0.13 0.13 0.13 0.16 0.19 0.20 0.22 0.23 0.24 0.27 0.28 0.30
Wind_Speed
19 20 21 22 22 23 23 24 24 24 24 24 24 24 24 24 25 25 25 26 24 26 22 22 25 26 26 26 26 25 23 23 22 20 19 21 22 22 23 21 21 21 19 23 23
22 23 24 25 25 26 26 26 26 27 27 27 26 26 25 25 25 26 28 29 31 27 26 26 26 27 26 28 28 28 26 25 22 22 21 20 22 24 23 23 22 21 20 25 24
25 26 27 27 27 28 28 29 29 30 30 30 29 29 28 26 25 23 21 24 29 33 30 29 28 28 28 27 30 30 29 25 23 24 23 22 23 24 24 25 26 26 26 25 25
27 28 29 30 31 32 33 34 34 34 33 33 32 31 30 27 25 21 22 23 25 29 32 31 31 31 29 30 31 28 33 26 27 24 24 23 23 24 25 25 26 27 29 27 27
29 31 33 34 35 36 37 38 39 39 38 37 36 35 33 32 31 31 27 26 26 29 32 33 34 34 32 33 29 33 27 33 28 29 27 24 24 25 25 25 27 28 29 29 28
33 35 37 38 40 41 42 43 43 43 42 41 39 38 37 40 33 33 34 32 30 31 32 34 33 35 32 31 37 31 36 28 31 36 30 29 27 26 27 25 28 30 30 29 29
37 39 40 42 43 44 44 45 46 46 45 43 42 40 42 43 39 40 38 36 35 35 35 36 35 34 32 31 35 38 31 36 38 31 32 31 32 31 29 28 30 31 31 30 30
39 41 43 44 45 46 46 47 47 43 41 40 38 38 39 37 39 39 39 39 38 38 39 38 39 36 35 32 27 34 34 33 34 39 34 33 34 34 32 30 31 32 31 31 31
41 43 44 46 47 47 47 46 40 38 36 33 33 33 34 38 38 39 38 40 42 42 40 40 39 42 38 36 32 33 36 41 31 37 34 37 32 35 34 33 32 33 32 31 30
43 44 45 46 45 45 46 42 34 34 31 28 30 31 31 36 38 38 39 40 40 40 42 42 41 41 44 41 45 37 38 34 39 35 35 35 33 30 34 35 34 33 34 32 31
44 45 46 45 44 45 45 36 30 29 24 22 21 22 29 33 31 32 35 37 36 39 40 41 45 50 56 53 44 32 35 38 32 33 36 40 37 32 30 35 35 34 33 34 32
44 45 46 45 44 43 39 31 25 20 19 20 20 22 25 27 26 26 28 28 34 37 36 41 51 56 48 48 48 46 35 35 34 34 34 34 35 29 27 29 35 35 34 35 34
45 45 46 45 41 38 33 29 24 16 15 19 20 22 24 22 19 24 25 27 29 33 37 38 43 48 50 48 51 50 50 34 33 32 31 29 29 32 28 28 30 32 35 35 34
45 45 46 45 36 35 29 29 21 15 14 20 24 22 24 20 17 20 21 23 24 27 30 36 38 44 46 45 47 52 52 42 34 35 36 35 30 32 33 30 31 33 34 35 35
44 45 45 44 38 32 30 26 18 15 14 23 23 23 23 16 18 19 19 19 20 24 25 31 30 32 46 46 42 40 45 48 40 33 32 32 28 31 34 33 33 34 34 35 35
44 44 44 40 36 32 27 20 18 16 13 19 24 24 25 19 16 16 15 13 16 19 21 28 32 30 30 39 37 37 37 44 43 37 34 36 32 32 37 37 35 35 34 34 34
43 44 43 40 36 32 23 18 18 16 20 22 25 24 22 22 17 15 14 11 7 11 15 21 20 23 26 32 39 36 35 30 36 39 37 40 33 28 32 34 36 36 35 34 34
41 42 42 40 37 28 21 19 18 18 20 21 22 22 21 22 18 16 13 10 8 6 12 14 18 18 19 25 31 33 42 32 33 29 44 38 33 34 33 34 35 35 35 34 33
37 40 39 39 35 29 21 19 16 17 20 22 21 20 21 22 18 18 15 10 8 8 7 11 15 16 17 21 27 32 28 34 22 27 34 30 30 31 34 34 34 34 34 33 33
36 35 39 38 35 27 24 20 17 20 19 19 21 19 20 22 19 18 18 12 13 10 7 10 13 11 17 20 21 28 29 24 33 26 20 27 32 33 38 36 35 35 35 34 34
36 33 40 34 28 27 24 21 19 20 21 19 20 18 19 20 18 17 15 13 15 11 7 7 11 9 12 16 16 22 28 28 21 23 30 20 25 30 35 36 35 35 34 34 34
35 32 40 31 27 26 25 23 22 21 22 19 20 19 19 20 18 18 18 15 17 12 7 6 8 9 10 16 17 20 21 30 26 18 13 25 26 27 31 34 34 34 34 34 33
33 32 35 31 26 25 24 23 21 23 22 21 20 20 21 19 17 18 18 16 17 13 7 6 6 9 11 13 13 15 17 28 32 24 18 16 22 25 27 30 31 33 34 34 33
32 31 30 32 27 24 22 24 24 22 21 23 20 21 20 17 17 16 18 15 15 15 9 1 1 5 9 11 7 12 8 14 25 27 23 17 17 21 23 28 28 30 31 32 31
32 31 29 28 27 26 23 23 24 23 22 24 20 24 20 18 18 16 16 14 13 16 8 2 3 7 9 8 6 3 3 9 13 24 23 25 18 18 18 22 27 28 28 29 30
30 30 30 28 26 25 25 23 23 24 21 22 22 25 19 17 15 15 15 13 12 14 9 2 4 6 8 7 7 5 3 2 9 15 20 20 19 21 22 22 21 23 26 27 28
32 30 28 29 27 24 24 24 23 26 21 22 23 23 20 18 17 15 11 9 9 12 10 4 2 6 5 10 11 5 1 4 5 8 16 16 19 19 19 18 20 20 21 23 25
Wind_Direction
336 332 328 324 320 316 312 308 304 301 296 292 288 284 281 276 271 266 258 252 249 246 242 234 229 229 227 228 228 227 233 232 232 223 229 224 221 215 215 212 216 212 206 197 193
333 330 326 322 318 314 310 307 304 300 295 291 287 284 281 278 273 267 262 255 248 246 238 233 229 226 230 230 228 228 231 232 230 228 227 230 221 211 212 213 217 211 204 194 194
331 328 325 322 319 315 311 307 303 300 295 289 285 282 279 277 272 262 266 258 249 241 238 236 231 228 231 231 230 232 234 231 232 230 229 231 221 218 213 218 216 205 198 198 198
330 328 325 321 317 313 309 305 301 298 294 289 283 279 276 270 265 260 267 265 252 241 236 232 230 229 231 232 231 236 236 230 227 227 228 226 225 220 220 219 211 206 201 202 202
330 327 323 319 316 312 308 304 300 295 291 287 282 276 271 264 261 263 268 266 255 239 234 231 229 229 231 232 233 234 235 230 228 227 228 229 225 221 220 217 207 206 202 203 204
328 325 322 318 315 312 308 303 299 294 289 284 279 273 267 264 263 262 266 260 254 240 237 232 235 230 236 234 230 236 233 232 228 230 228 227 225 221 217 214 207 204 206 204 204
329 325 322 319 316 313 309 305 300 294 289 282 276 270 266 264 265 265 262 255 252 245 240 235 234 230 234 236 235 233 233 233 231 225 226 223 227 221 217 213 209 208 206 206 207
330 327 324 321 318 315 312 308 303 296 290 285 273 268 266 266 264 264 259 254 249 244 240 236 234 236 235 237 234 229 232 231 228 223 226 219 227 222 217 214 213 211 211 210 211
332 330 328 325 322 319 317 312 307 301 293 286 279 269 269 266 271 265 260 258 251 244 239 235 234 233 233 232 236 229 231 228 231 221 222 221 226 223 219 217 216 213 211 210 210
335 333 331 329 328 326 323 316 307 311 297 284 289 272 278 276 272 266 264 258 251 243 240 232 231 230 226 225 228 228 227 229 225 221 221 222 225 222 219 218 216 214 210 210 210
338 337 335 333 332 331 329 324 312 312 317 300 291 282 281 284 271 270 268 257 250 241 237 234 229 227 226 228 231 234 233 231 233 227 222 224 224 224 222 219 216 213 209 209 211
342 340 339 337 334 336 337 336 329 313 319 332 310 301 298 292 274 281 276 258 249 244 241 233 230 231 233 231 231 233 234 232 232 225 223 224 225 222 223 221 216 210 210 212 213
345 344 343 341 339 340 341 341 336 325 325 331 331 320 312 300 285 286 282 263 251 244 240 238 236 232 232 229 228 230 229 228 228 225 226 219 226 220 219 211 210 210 212 213 215
348 347 346 346 344 343 345 343 340 334 333 338 339 332 323 309 295 298 286 263 253 248 245 237 236 232 228 229 229 229 226 225 226 221 223 219 225 220 215 211 211 210 211 214 216
352 351 351 351 348 348 344 347 350 346 351 336 342 337 337 331 308 304 300 267 254 253 242 233 236 235 227 225 227 232 224 224 224 224 223 224 221 222 211 213 210 211 211 214 216
355 355 355 355 355 351 350 358 2 5 349 348 346 345 352 343 328 317 319 300 254 252 240 237 238 232 229 224 225 228 225 221 222 224 227 221 217 222 215 214 211 212 213 214 216
357 358 359 358 357 356 360 3 9 17 358 353 352 353 357 354 348 342 336 333 304 259 260 242 226 227 227 225 220 222 213 214 217 219 223 215 217 222 219 210 210 210 213 215 218
359 1 2 3 0 2 6 16 18 1 5 358 356 359 3 359 356 354 339 337 322 276 251 236 227 227 233 221 218 217 217 218 217 211 215 212 214 215 212 209 210 212 214 216 219
357 2 4 4 4 9 11 13 11 3 359 0 1 3 3 0 357 359 355 341 317 321 257 234 226 227 220 220 216 213 214 220 217 225 213 210 215 212 210 211 212 214 216 219 222
360 2 4 2 8 13 18 27 17 10 2 4 6 3 0 357 358 4 0 351 337 322 285 242 233 233 226 217 216 215 216 213 215 206 202 214 214 211 210 211 214 216 218 221 223
3 5 3 5 12 17 21 22 17 9 7 5 1 358 358 358 358 358 352 345 349 321 296 248 229 230 210 214 213 216 213 216 213 218 215 197 212 215 211 212 215 217 219 222 225
8 8 6 12 16 16 19 16 14 7 7 4 2 359 358 358 357 359 356 353 349 332 304 258 232 216 205 208 209 207 221 215 215 215 211 217 217 218 213 214 216 220 221 224 226
8 9 10 15 16 16 17 16 14 11 9 6 3 360 358 359 359 3 358 357 359 353 341 287 236 217 228 220 217 217 239 222 215 213 217 206 208 213 211 214 218 221 223 226 229
9 8 8 15 17 18 15 14 11 9 10 7 7 4 359 359 359 357 358 2 0 5 13 79 74 165 184 196 215 223 237 223 216 215 210 214 193 211 215 215 219 222 225 227 230
9 10 11 10 13 15 16 10 10 9 8 8 5 4 1 0 359 1 1 360 6 10 13 94 127 124 148 153 119 116 218 226 204 211 216 208 202 212 209 213 222 225 227 229 233
9 9 11 11 11 12 11 8 6 4 4 4 4 358 1 1 359 354 358 3 11 3 12 15 173 171 167 156 118 103 93 109 205 209 206 209 217 226 218 219 220 226 231 235 237
9 10 11 8 8 11 7 4 2 2 1 360 358 357 357 356 349 344 348 352 360 7 6 10 186 213 217 227 233 216 228 149 160 191 205 209 218 220 219 215 221 227 231 234 238